• In Uzbekistan
  • List of Countries
  • For 7 days
  • Water Temperature
  • Satellite Maps
  • Weather Map
  • Weather Widgets
  • user-avatar
    Login

    Hourly Weather Luksor

    Today, 17 August, Friday

    Time Temperature Precipitation Wind Pressure Humidity
    00:00 +36°C° 0 mm 3 mps 747 mmHg 17%
    01:00 +35°C° 0 mm 2 mps 747 mmHg 18%
    02:00 +34°C° 0 mm 2 mps 747 mmHg 21%
    03:00 +32°C° 0 mm 2 mps 747 mmHg 22%
    04:00 +32°C° 0 mm 2 mps 747 mmHg 23%
    05:00 +31°C° 0 mm 1 mps 747 mmHg 25%
    06:00 +34°C° 0 mm 2 mps 748 mmHg 23%
    07:00 +35°C° 0 mm 2 mps 748 mmHg 21%
    08:00 +36°C° 0 mm 2 mps 748 mmHg 20%
    09:00 +38°C° 0 mm 2 mps 748 mmHg 18%
    10:00 +40°C° 0 mm 3 mps 748 mmHg 15%
    11:00 +43°C° 0 mm 3 mps 748 mmHg 13%
    12:00 +44°C° 0 mm 3 mps 747 mmHg 12%
    13:00 +45°C° 0 mm 3 mps 747 mmHg 10%
    14:00 +46°C° 0 mm 3 mps 746 mmHg 9%
    15:00 +46°C° 0 mm 3 mps 746 mmHg 9%
    16:00 +47°C° 0 mm 4 mps 746 mmHg 9%
    17:00 +47°C° 0 mm 4 mps 745 mmHg 9%
    18:00 +45°C° 0 mm 5 mps 746 mmHg 10%
    19:00 +43°C° 0 mm 5 mps 746 mmHg 11%
    20:00 +41°C° 0 mm 5 mps 746 mmHg 12%
    21:00 +41°C° 0 mm 5 mps 746 mmHg 14%
    22:00 +40°C° 0 mm 5 mps 746 mmHg 15%
    23:00 +38°C° 0 mm 4 mps 746 mmHg 16%

    Tomorrow, 18 August, Saturday

    Time Temperature Precipitation Wind Pressure Humidity
    00:00 +37°C° 0 mm 4 mps 746 mmHg 18%
    01:00 +36°C° 0 mm 3 mps 746 mmHg 19%
    02:00 +35°C° 0 mm 2 mps 746 mmHg 21%
    03:00 +35°C° 0 mm 2 mps 746 mmHg 22%
    04:00 +34°C° 0 mm 2 mps 746 mmHg 23%
    05:00 +34°C° 0 mm 2 mps 746 mmHg 24%
    06:00 +35°C° 0 mm 3 mps 746 mmHg 23%
    07:00 +36°C° 0 mm 3 mps 746 mmHg 22%
    08:00 +37°C° 0 mm 4 mps 747 mmHg 20%
    09:00 +40°C° 0 mm 4 mps 747 mmHg 18%
    10:00 +42°C° 0 mm 5 mps 746 mmHg 16%
    11:00 +45°C° 0 mm 5 mps 746 mmHg 13%
    12:00 +45°C° 0 mm 5 mps 746 mmHg 12%
    13:00 +46°C° 0 mm 5 mps 745 mmHg 11%
    14:00 +47°C° 0 mm 5 mps 745 mmHg 10%
    15:00 +47°C° 0 mm 5 mps 744 mmHg 10%
    16:00 +46°C° 0 mm 6 mps 744 mmHg 10%
    17:00 +46°C° 0 mm 6 mps 744 mmHg 10%
    18:00 +45°C° 0 mm 6 mps 744 mmHg 11%
    19:00 +42°C° 0 mm 6 mps 745 mmHg 12%
    20:00 +41°C° 0 mm 5 mps 745 mmHg 13%
    21:00 +40°C° 0 mm 6 mps 745 mmHg 15%
    22:00 +39°C° 0 mm 6 mps 746 mmHg 17%
    23:00 +38°C° 0 mm 6 mps 746 mmHg 18%

    Day after tomorrow, 19 August, Sunday

    Time Temperature Precipitation Wind Pressure Humidity
    00:00 +37°C° 0 mm 5 mps 746 mmHg 20%
    01:00 +36°C° 0 mm 4 mps 745 mmHg 22%
    02:00 +35°C° 0 mm 3 mps 745 mmHg 24%
    03:00 +35°C° 0 mm 3 mps 745 mmHg 26%
    04:00 +34°C° 0 mm 3 mps 745 mmHg 28%
    05:00 +33°C° 0 mm 3 mps 745 mmHg 30%
    06:00 +34°C° 0 mm 3 mps 745 mmHg 30%
    07:00 +35°C° 0 mm 4 mps 746 mmHg 29%
    08:00 +37°C° 0 mm 4 mps 746 mmHg 28%
    09:00 +38°C° 0 mm 4 mps 746 mmHg 25%
    10:00 +41°C° 0 mm 4 mps 746 mmHg 22%
    11:00 +42°C° 0 mm 4 mps 746 mmHg 18%
    12:00 +43°C° 0 mm 4 mps 745 mmHg 17%
    13:00 +44°C° 0 mm 4 mps 745 mmHg 15%
    14:00 +45°C° 0 mm 4 mps 744 mmHg 14%
    15:00 +46°C° 0 mm 5 mps 744 mmHg 14%
    16:00 +45°C° 0 mm 5 mps 744 mmHg 14%
    17:00 +45°C° 0 mm 5 mps 743 mmHg 13%
    18:00 +43°C° 0 mm 5 mps 744 mmHg 14%
    19:00 +42°C° 0 mm 5 mps 745 mmHg 15%
    20:00 +40°C° 0 mm 5 mps 745 mmHg 16%
    21:00 +39°C° 0 mm 5 mps 745 mmHg 17%
    22:00 +38°C° 0 mm 4 mps 746 mmHg 17%
    23:00 +37°C° 0 mm 4 mps 746 mmHg 18%

    20 August, Monday

    Time Temperature Precipitation Wind Pressure Humidity
    00:00 +36°C° 0 mm 3 mps 746 mmHg 19%
    01:00 +35°C° 0 mm 3 mps 745 mmHg 20%
    02:00 +35°C° 0 mm 2 mps 745 mmHg 21%
    03:00 +34°C° 0 mm 2 mps 745 mmHg 22%
    04:00 +34°C° 0 mm 2 mps 745 mmHg 24%
    05:00 +32°C° 0 mm 2 mps 745 mmHg 25%
    06:00 +34°C° 0 mm 2 mps 746 mmHg 24%
    07:00 +36°C° 0 mm 3 mps 746 mmHg 23%
    08:00 +37°C° 0 mm 3 mps 746 mmHg 22%
    09:00 +38°C° 0 mm 3 mps 746 mmHg 20%
    10:00 +40°C° 0 mm 3 mps 746 mmHg 18%
    11:00 +42°C° 0 mm 3 mps 746 mmHg 15%
    12:00 +43°C° 0 mm 4 mps 746 mmHg 14%
    13:00 +44°C° 0 mm 4 mps 746 mmHg 13%
    14:00 +46°C° 0 mm 5 mps 745 mmHg 12%
    15:00 +45°C° 0 mm 5 mps 745 mmHg 12%
    16:00 +45°C° 0 mm 5 mps 745 mmHg 12%
    17:00 +45°C° 0 mm 5 mps 745 mmHg 13%
    18:00 +43°C° 0 mm 5 mps 746 mmHg 14%
    19:00 +41°C° 0 mm 4 mps 746 mmHg 16%
    20:00 +40°C° 0 mm 4 mps 747 mmHg 18%
    21:00 +40°C° 0 mm 4 mps 747 mmHg 19%
    22:00 +38°C° 0 mm 3 mps 747 mmHg 20%
    23:00 +37°C° 0 mm 3 mps 747 mmHg 21%

    21 August, Tuesday

    Time Temperature Precipitation Wind Pressure Humidity
    00:00 +37°C° 0 mm 3 mps 747 mmHg 22%
    01:00 +36°C° 0 mm 3 mps 747 mmHg 22%
    02:00 +35°C° 0 mm 3 mps 747 mmHg 23%
    03:00 +35°C° 0 mm 2 mps 747 mmHg 23%
    04:00 +34°C° 0 mm 2 mps 747 mmHg 24%
    05:00 +34°C° 0 mm 2 mps 748 mmHg 25%
    06:00 +35°C° 0 mm 2 mps 748 mmHg 23%
    07:00 +37°C° 0 mm 2 mps 748 mmHg 21%
    08:00 +38°C° 0 mm 2 mps 749 mmHg 19%
    09:00 +39°C° 0 mm 3 mps 749 mmHg 18%
    10:00 +42°C° 0 mm 3 mps 749 mmHg 16%
    11:00 +43°C° 0 mm 4 mps 748 mmHg 14%
    12:00 +44°C° 0 mm 4 mps 748 mmHg 13%
    13:00 +46°C° 0 mm 5 mps 747 mmHg 12%
    14:00 +46°C° 0 mm 5 mps 747 mmHg 11%
    15:00 +46°C° 0 mm 5 mps 747 mmHg 11%
    16:00 +46°C° 0 mm 6 mps 746 mmHg 11%
    17:00 +46°C° 0 mm 6 mps 746 mmHg 11%
    18:00 +45°C° 0 mm 5 mps 747 mmHg 12%
    19:00 +42°C° 0 mm 5 mps 747 mmHg 13%
    20:00 +41°C° 0 mm 4 mps 748 mmHg 14%
    21:00 +40°C° 0 mm 4 mps 748 mmHg 15%
    22:00 +40°C° 0 mm 4 mps 748 mmHg 16%
    23:00 +38°C° 0 mm 3 mps 748 mmHg 17%

    22 August, Wednesday

    Time Temperature Precipitation Wind Pressure Humidity
    00:00 +37°C° 0 mm 3 mps 748 mmHg 18%
    01:00 +37°C° 0 mm 3 mps 748 mmHg 19%
    02:00 +36°C° 0 mm 3 mps 747 mmHg 20%
    03:00 +35°C° 0 mm 3 mps 748 mmHg 21%
    04:00 +35°C° 0 mm 3 mps 748 mmHg 22%
    05:00 +34°C° 0 mm 3 mps 748 mmHg 23%
    06:00 +36°C° 0 mm 3 mps 748 mmHg 22%
    07:00 +37°C° 0 mm 4 mps 748 mmHg 21%
    08:00 +38°C° 0 mm 4 mps 749 mmHg 19%
    09:00 +41°C° 0 mm 4 mps 748 mmHg 18%
    10:00 +42°C° 0 mm 5 mps 748 mmHg 16%
    11:00 +43°C° 0 mm 5 mps 748 mmHg 14%
    12:00 +45°C° 0 mm 5 mps 747 mmHg 13%
    13:00 +46°C° 0 mm 5 mps 747 mmHg 12%
    14:00 +46°C° 0 mm 6 mps 746 mmHg 10%
    15:00 +46°C° 0 mm 6 mps 746 mmHg 11%
    16:00 +46°C° 0 mm 6 mps 746 mmHg 11%
    17:00 +46°C° 0 mm 6 mps 746 mmHg 11%
    18:00 +44°C° 0 mm 6 mps 746 mmHg 13%
    19:00 +42°C° 0 mm 6 mps 746 mmHg 15%
    20:00 +41°C° 0 mm 6 mps 747 mmHg 16%
    21:00 +40°C° 0 mm 6 mps 747 mmHg 18%
    22:00 +39°C° 0 mm 5 mps 747 mmHg 19%
    23:00 +39°C° 0 mm 5 mps 747 mmHg 21%
    Show more